Regional Weather Roundup
Issued by NWS Kansas City/Pleasant Hill, MO

Home | Current Version | Previous Version | Text Only | Print | Product List | Glossary On
Versions: 1 2 3 4 5 6 7 8 9 10 11 12 13 14 15 16 17 18 19 20 21 22 23 24 25 26 27 28 29 30 31 32 33 34 35 36 37 38 39 40 41 42 43 44 45 46 47 48 49 50
000
ASUS43 KEAX 251111
RWREAX

WEATHER ROUNDUP FOR EASTERN KANSAS AND NORTHWEST MISSOURI
NATIONAL WEATHER SERVICE KANSAS CITY/PLEASANT HILL MO
600 AM CDT MON MAY 25 2015

KSZ040-057-103>105-MOZ028-029-037-043-251200-
...KANSAS CITY METROPOLITAN AREA...

CITY           SKY/WX    TMP DP  RH WIND       PRES   REMARKS
K.C. INTL      PTCLDY    58  58 100 SW7       29.88R
K.C. DOWNTOWN  PTCLDY    62  59  90 S12       29.88R
LEES SUMMIT    CLOUDY    61  59  93 S10       29.90R
OLATHE - IXD   PTCLDY    59  58  96 SE7       29.89S
OLATHE - OJC   PTCLDY    59  58  96 S5        29.88S
LAWRENCE       MOCLDY    61  58  90 S7        29.88R

$$

MOZ001>008-011>017-020>025-030>033-038>040-044>046-053-054-251200-
...NORTHERN AND CENTRAL MISSOURI...

CITY           SKY/WX    TMP DP  RH WIND       PRES   REMARKS
ST. JOSEPH     CLOUDY    62  61  96 SW9       29.86R
MOSBY          PTSUNNY   61  61 100 S5        29.87S
WARRENSBURG    MOCLDY    61  59  94 S7        29.90S
WHITEMAN AFB   NOT AVBL
CLINTON        CLOUDY    63  61  94 SW3       29.93R
SEDALIA        CLOUDY    62  60  93 SW12      29.94R
WARSAW         NOT AVBL
CHILLICOTHE      N/A     63  62  97 SW6       29.88R
KIRKSVILLE     LGT RAIN  61  61 100 SW6       29.87R

$$

MOZ041-047>049-056>058-063>065-088>090-097-251200-
...EASTERN AND SOUTHERN MISSOURI...

CITY           SKY/WX    TMP DP  RH WIND       PRES   REMARKS
ST. LOUIS INTL MOCLDY    71  64  78 S10       29.93R
SPIRIT OF STL  MOCLDY    68  64  87 SW10      29.91R
COLUMBIA       CLOUDY    63  61  93 SW9       29.92R
JEFFERSON CITY CLOUDY    64  60  87 S7        29.93R
ROLLA          CLOUDY    63  60  90 SW9       29.95R
OSAGE BEACH    PTCLDY    63  59  88 S5        29.94R
SPRINGFIELD    MOCLDY    62  60  93 S10       29.94R
BRANSON        MOCLDY    59  59 100 CALM      29.98R
JOPLIN         CLOUDY    64  62  93 S6        29.92S
WEST PLAINS    CLOUDY    68  64  87 S7        29.99R

$$

IAZ060-094-KSZ022-034>040-054-083-096-NEZ052-066-093-251200-
...KANSAS...SOUTHEAST NEBRASKA AND IOWA...

CITY           SKY/WX    TMP DP  RH WIND       PRES   REMARKS
TOPEKA         PTCLDY    61  58  90 CALM      29.87R
MANHATTAN      LGT RAIN  60  58  92 SW8       29.90R
EMPORIA        LGT RAIN  60  59  96 W16G26    29.91R
CHANUTE        CLOUDY    62  61  96 S9        29.89R FOG
WICHITA        CLOUDY    59  56  89 NE5       29.87F
OMAHA          MOCLDY    62  61  96 S9        29.78R
LINCOLN        PTCLDY    60  59  96 S9        29.78R
FALLS CITY     PTCLDY    61  59  93 S9        29.83R
LAMONI         CLOUDY    63  61  93 SW10      29.82R
DES MOINES     LGT RAIN  64  61  90 SW10      29.77S

$$




USA.gov is the U.S. government's official web portal to all federal, state and local government web resources and services.